Location: �quirre
(50.4736°N, 2.2351°E)
Time: 06:29:32
(UTC+00:00)

Cosmos 2266 Rocket - Pass Details

Date: 07 August 2020
Orbit: 934 x 1008 km, 82.9° (Epoch: 23 September)

Event Time Altitude Azimuth Distance (km) Brightness Sun altitude
Rises 02:29:05 0° 349° (N) 3,747 7.7 -15.3°
Reaches altitude 10° 02:31:38 10° 349° (NNW) 2,788 7.0 -15.1°
Maximum altitude 02:38:03 81° 264° (W) 1,011 4.0 -14.4°
Drops below altitude 10° 02:44:19 10° 177° (S) 2,725 5.9 -13.8°
Enters shadow 02:45:00 - 177° (S) 2,983 6.1 -13.7°
